Location: Chillicothe
(39.7950°N, 93.5520°W)
Time: 21:29:59
(UTC-06:00)

Vanguard 3 - Pass Details

Date: 28 October 2019
Orbit: 507 x 3263 km, 33.4° (Epoch: 21 November)

Event Time Altitude Azimuth Distance (km) Brightness Sun altitude
Rises 23:25:39 0° 254° (WSW) 3,866 - -56.7°
Reaches altitude 10° 23:29:03 10° 247° (WSW) 2,527 - -57.1°
Maximum altitude 23:34:08 37° 181° (S) 999 - -57.8°
Drops below altitude 10° 23:37:48 10° 112° (ESE) 1,804 - -58.2°
Sets 23:39:52 0° 103° (ESE) 2,618 - -58.5°
